loading
DOY 175 | 2024-06-23T16:55:27Z

THOR ABLESTAR DEB, 659

Orbit data source: Space-Track

THOR ABLESTAR DEB, 659 is space debris in LEO originally from a launch on Thu, 29 Jun 1961 UTC launched from the Air Force Eastern Test Range (AFETR). Debris objects in space refer to the collection of defunct objects orbiting the Earth. Examples of debris include non-operational satellites, rocket bodies, and fragments generated from explosions, collisions, or faulty payload assembly.

Loading next visibility...
Loading greatness...
THOR ABLESTAR DEB details
NORAD ID659
COSPAR ID
1961-015HL
Orbit
LEO
Last TLE update23 hours ago
Origin
Flag of USUSAF SSD (US)
ManufacturerUnknown
BusUnknown
MotorUnknown
MassWet unknown, Dry mass unknown
Launch date (UTC)
1961-06-29 (63 years ago)
Launch vehicleUnknown
Launch site
Air Force Eastern Test Range (AFETR)
Object type
Payload
Rocket body
Debris
Radar Cross SectionSmall (<0.1 m²)
Predictive object data (real-time)
Latitude37.33279°
Longitude53.35958°
Altitude1,617.541 km
Speed6.967 km/s
Apparent Right ascension15h 37m 50s
Apparent Declination3° 51' 53"
Sunlit
Object is in daylight
Predictive observer data (real-time)
Local Sidereal Time04:04:23
Azimuth9.52° NNE
Elevation-45.796°
Doppler factor1
Orbital elements
Apogee1,849.996 km
Perigee941.719 km
Semi-major axis7,773.994 km
Eccentricity0.0584177
Inclination67.163°
RAAN69.8857°
Arg. of periapsis18.2688°
True anomaly14.64091°
Mean anomaly13.0181°
Mean motion3.16648 °/min
BSTAR0.00084728
Period113.69 mins
Definitive object data (Epoch: 2024-06-22T17:38:24.821Z)
Latitude30.11606°
Longitude-92.04901°
Altitude959.171 km
Speed7.581 km/s
True Right ascension05h 35m 47s
True Declination29° 58' 16"
Sunlit
Object was in daylight at TLE epoch
TLE from 23 hours ago
0 THOR ABLESTAR DEB
1 00659U 61015HL  24174.73500951  .00000261  00000-0  84728-3 0  9992
2 00659  67.1630  69.8857 0584177  18.2688  13.0181 12.66211085899285
Epoch: 2024-06-22T17:38Z
No data available

THOR ABLESTAR DEB Visibility forecast

Observer location: 39.9160978°, -105.1181434, 0m alt.

THOR ABLESTAR DEB is not visible in the next 10 days
Span
Click to sort rows by Start time (UTC) header in descending order
Start Az.
Max El. time (UTC)
Max El. Az.
Max El.
End time (UTC)
End Az.